Meteo Giornale » Osservazioni meteo Italia » Milano-Malpensa

ore: 15:20 - Osservazioni Meteo Milano-Malpensa
Lat. 45° 37' N Lon. 8° 44' E Alt. 234 metri s.l.m.

nuvoloso Europe/Rome

20 °C

Nuvoloso

Temp. 24 Ore

14 °C

22 °C

Nord-Ovest

13 Km/h

Dew point 13 °C

Umidità 64 %

Visibilità  10 Km

Il sole sorge alle ore 05:41

Il sole tramonta alle ore 21:02

Data e Ora Cielo e Fenomeni T °C DP °C Um. % Pres. hPa Vis. km Vento km/h
Oggi h: 15:20 nuvoloso Nuvoloso 20 13 64 1015 10 NO 13
Oggi h: 14:50 molto_nuvoloso Molto Nuvoloso 20 13 64 1015 10 O/NO 9.3
Oggi h: 14:20 molto_nuvoloso Molto Nuvoloso 20 13 64 1015 10 NO 13
Oggi h: 13:50 molto_nuvoloso Molto Nuvoloso 20 13 64 1015 10 N 14.8
Oggi h: 13:20 molto_nuvoloso Molto Nuvoloso 22 13 56 1016 10 O 7.4
Oggi h: 12:50 molto_nuvoloso Molto Nuvoloso 20 12 59 1016 10 SE 7.4
Oggi h: 12:20 molto_nuvoloso Molto Nuvoloso 20 13 64 1016 10 N 5.5
Oggi h: 11:50 molto_nuvoloso Molto Nuvoloso 20 13 64 1016 10 N 5.5
Oggi h: 11:20 molto_nuvoloso Molto Nuvoloso 19 14 72 1016 10 N 11.1
Oggi h: 10:50 molto_nuvoloso Molto Nuvoloso 18 13 72 1016 10 N 11.1
Oggi h: 10:20 molto_nuvoloso Molto Nuvoloso 17 14 82 1016 10 N/NE 9.3
Oggi h: 09:50 molto_nuvoloso Molto Nuvoloso 16 13 82 1016 10 N/NE 9.3
Oggi h: 09:20 molto_nuvoloso Molto Nuvoloso 15 13 87 1016 10 N/NE 11.1
Oggi h: 08:50 molto_nuvoloso Molto Nuvoloso 15 13 87 1016 10 N 11.1
Oggi h: 08:20 molto_nuvoloso Molto Nuvoloso 15 13 87 1015 10 N 7.4
Oggi h: 07:50 coperto_pioggia Pioviggine Leggera 15 13 87 1015 10 N 9.3
Oggi h: 07:20 coperto_pioggia Pioviggine Leggera 15 13 87 1015 10 N 7.4
Oggi h: 06:50 coperto_pioggia Pioviggine 14 13 93 1015 10 N 5.5
Oggi h: 05:50 coperto_pioggia Pioggia Debole 14 13 93 1014 8 N/NE 9.3
Oggi h: 05:20 coperto_pioggia Pioggia Debole 14 13 93 1014 10 N/NE 11.1
Oggi h: 04:50 coperto_pioggia Pioviggine Leggera 14 13 93 1015 10 N 9.3
Oggi h: 04:20 molto_nuvoloso Molto Nuvoloso 14 13 93 1015 10 N 7.4
Oggi h: 03:20 poco_nuvoloso Poco Nuvoloso 14 14 100 1015 10 N 7.4
Oggi h: 02:50 coperto_pioggia Pioviggine Leggera 15 14 93 1015 10 N 7.4
Oggi h: 02:20 coperto_pioggia Pioviggine Leggera 15 14 93 1015 10 N 9.3
Oggi h: 01:50 molto_nuvoloso Molto Nuvoloso 15 14 93 1015 10 N 9.3
Oggi h: 01:20 molto_nuvoloso Molto Nuvoloso 14 14 100 1015 10 N 5.5
Oggi h: 00:50 molto_nuvoloso Molto Nuvoloso 15 14 93 1016 10 N 5.5
Oggi h: 00:20 molto_nuvoloso Molto Nuvoloso 15 14 93 1016 10 N 5.5
Ieri h: 23:50 coperto_pioggia Pioviggine Leggera 16 14 87 1016 10 N 5.5
Ieri h: 23:20 molto_nuvoloso Molto Nuvoloso 16 13 82 1016 10 N 3.7
Ieri h: 22:50 coperto_pioggia Pioviggine Leggera 16 13 82 1016 10 N 5.5
Ieri h: 22:20 coperto_pioggia Pioviggine Leggera 16 13 82 1016 10 N 5.5
Ieri h: 21:50 nuvoloso Nuvoloso 16 13 82 1015 10 NE 9.3
Ieri h: 21:20 nuvoloso Nuvoloso 17 13 77 1015 10 NE 9.3
Ieri h: 20:50 coperto_pioggia Pioggia Debole 17 14 82 1015 10 N 5.5
Ieri h: 20:20 coperto_pioggia Pioggia Debole 17 14 82 1015 10 E 14.8
Ieri h: 19:50 coperto_pioggia Pioggia Debole 18 14 77 1015 10 E 9.3
Ieri h: 19:20 nuvoloso Nuvoloso 18 13 72 1014 10 E/NE 7.4
Ieri h: 18:20 nuvoloso Nuvoloso 18 13 72 1014 10 NE 11.1
Ieri h: 17:50 sereno Sereno 17 13 77 1013 10 N/NE 18.5
Ieri h: 17:20 nuvoloso Nuvoloso 17 13 77 1014 10 N/NE 18.5
Ieri h: 16:50 nuvoloso Nuvoloso 17 13 77 1014 10 N 24
Ieri h: 16:20 molto_nuvoloso Molto Nuvoloso 17 13 77 1014 10 N 25.9
Ieri h: 15:50 coperto_temporali Temporale 18 12 67 1014 10 N 20.3